Location: Newark
(0.5481°S, 166.9394°E)
Time: 12:23:52
(UTC+00:00)

OTV 5 (USA 277) - Visible Passes

Search period start: 20 October 2019 00:00
Search period end: 30 October 2019 00:00
Orbit: 310 x 324 km, 54.5° (Epoch: 17 October)

Date Brightness Start Highest point End Pass type
(mag) Time Alt. Az. Time Alt. Az. Time Alt. Az.
20 Oct ? 07:32:22 10° SSE 07:32:56 12° SE 07:32:56 12° SE visible
21 Oct ? 07:45:33 10° SSW 07:48:04 65° SSE 07:48:04 65° SSE visible
22 Oct ? 08:00:38 10° WSW 08:02:41 19° WNW 08:03:15 18° NW visible
26 Oct ? 17:11:50 14° NNE 17:12:51 16° ENE 17:14:40 10° E visible
27 Oct ? 17:26:58 64° NW 17:27:19 87° WSW 17:30:01 10° SSE visible
28 Oct ? 17:42:00 15° SW 17:42:00 15° SW 17:43:32 10° SSW visible
